Time,TemperatureF,DewpointF,PressureIn,WindDirection,WindDirectionDegrees,WindSpeedMPH,WindSpeedGustMPH,Humidity,HourlyPrecipIn,Conditions,Clouds,dailyrainin,SoftwareType,DateUTC
2013-03-03 00:04:00,32.7,30.6,29.45,West,270,4.2,-999.0,92,-99.99,,,0.00,Acu-Link.com,2013-03-03 05:04:00,
2013-03-03 00:20:00,32.7,30.6,29.45,NW,315,5.8,-999.0,92,-99.99,,,0.00,Acu-Link.com,2013-03-03 05:20:00,
2013-03-03 00:35:00,32.7,30.6,29.44,NW,315,2.2,-999.0,92,-99.99,,,0.00,Acu-Link.com,2013-03-03 05:35:00,
2013-03-03 00:50:00,32.7,30.9,29.44,North,0,5.3,-999.0,93,-99.99,,,0.00,Acu-Link.com,2013-03-03 05:50:00,
2013-03-03 01:05:00,32.7,30.9,29.44,SSE,157,5.3,-999.0,93,-99.99,,,0.00,Acu-Link.com,2013-03-03 06:05:00,
2013-03-03 01:21:00,32.7,30.9,29.44,ENE,67,5.8,-999.0,93,-99.99,,,0.00,Acu-Link.com,2013-03-03 06:21:00,
2013-03-03 01:36:00,32.5,30.7,29.44,NE,45,5.8,-999.0,93,-99.99,,,0.00,Acu-Link.com,2013-03-03 06:36:00,
2013-03-03 01:51:00,32.5,30.7,29.44,ENE,67,1.7,-999.0,93,-99.99,,,0.00,Acu-Link.com,2013-03-03 06:51:00,
2013-03-03 02:07:00,32.5,30.7,29.43,NW,315,5.3,-999.0,93,-99.99,,,0.00,Acu-Link.com,2013-03-03 07:07:00,
2013-03-03 02:22:00,32.5,30.7,29.43,North,0,2.2,-999.0,93,-99.99,,,0.00,Acu-Link.com,2013-03-03 07:22:00,
2013-03-03 02:37:00,32.5,30.7,29.42,NNE,22,2.2,-999.0,93,-99.99,,,0.00,Acu-Link.com,2013-03-03 07:37:00,
2013-03-03 02:53:00,32.5,30.7,29.43,WNW,292,4.7,-999.0,93,-99.99,,,0.00,Acu-Link.com,2013-03-03 07:53:00,
2013-03-03 03:08:00,32.5,30.7,29.43,SE,135,3.2,-999.0,93,-99.99,,,0.00,Acu-Link.com,2013-03-03 08:08:00,
2013-03-03 03:23:00,32.5,30.7,29.43,NNE,22,2.7,-999.0,93,-99.99,,,0.00,Acu-Link.com,2013-03-03 08:23:00,
2013-03-03 03:39:00,32.5,30.7,29.43,ENE,67,1.7,-999.0,93,-99.99,,,0.00,Acu-Link.com,2013-03-03 08:39:00,
2013-03-03 03:54:00,32.5,30.7,29.43,NE,45,0.0,-999.0,93,-99.99,,,0.00,Acu-Link.com,2013-03-03 08:54:00,
2013-03-03 04:18:00,32.5,30.7,29.43,West,270,0.0,-999.0,93,-99.99,,,0.00,Acu-Link.com,2013-03-03 09:18:00,
2013-03-03 04:34:00,32.5,30.7,29.43,SW,225,2.7,-999.0,93,-99.99,,,0.00,Acu-Link.com,2013-03-03 09:34:00,
2013-03-03 04:49:00,32.5,30.7,29.44,East,90,3.2,-999.0,93,-99.99,,,0.00,Acu-Link.com,2013-03-03 09:49:00,
2013-03-03 05:04:00,32.5,30.7,29.43,SSE,157,1.1,-999.0,93,-99.99,,,0.00,Acu-Link.com,2013-03-03 10:04:00,
2013-03-03 05:19:00,32.5,30.7,29.43,NNE,22,3.2,-999.0,93,-99.99,,,0.00,Acu-Link.com,2013-03-03 10:19:00,
2013-03-03 05:35:00,32.5,30.7,29.43,NE,45,2.7,-999.0,93,-99.99,,,0.01,Acu-Link.com,2013-03-03 10:35:00,
2013-03-03 05:50:00,32.7,30.9,29.44,ENE,67,4.2,-999.0,93,-99.99,,,0.01,Acu-Link.com,2013-03-03 10:50:00,
2013-03-03 06:06:00,32.7,30.9,29.44,NW,315,3.7,-999.0,93,-99.99,,,0.01,Acu-Link.com,2013-03-03 11:06:00,
2013-03-03 06:21:00,32.7,30.6,29.44,North,0,5.3,-999.0,92,-99.99,,,0.01,Acu-Link.com,2013-03-03 11:21:00,
2013-03-03 06:36:00,32.9,30.6,29.44,North,0,2.7,-999.0,91,-99.99,,,0.01,Acu-Link.com,2013-03-03 11:36:00,
2013-03-03 06:51:00,33.1,30.8,29.44,North,0,2.7,-999.0,91,-99.99,,,0.01,Acu-Link.com,2013-03-03 11:51:00,
2013-03-03 07:06:00,33.3,30.4,29.44,NW,315,5.3,-999.0,89,-99.99,,,0.01,Acu-Link.com,2013-03-03 12:06:00,
2013-03-03 07:22:00,33.6,30.7,29.44,North,0,5.8,-999.0,89,-99.99,,,0.01,Acu-Link.com,2013-03-03 12:22:00,
2013-03-03 07:37:00,33.6,30.2,29.44,NNW,337,7.8,-999.0,87,-99.99,,,0.02,Acu-Link.com,2013-03-03 12:37:00,
2013-03-03 07:53:00,34.0,30.5,29.45,NNW,337,4.7,-999.0,87,-99.99,,,0.03,Acu-Link.com,2013-03-03 12:53:00,
2013-03-03 08:08:00,34.7,30.9,29.45,NNE,22,4.2,-999.0,86,-99.99,,,0.03,Acu-Link.com,2013-03-03 13:08:00,
2013-03-03 08:23:00,34.9,30.9,29.44,NNW,337,6.3,-999.0,85,-99.99,,,0.05,Acu-Link.com,2013-03-03 13:23:00,
2013-03-03 08:39:00,35.1,30.8,29.44,NNW,337,7.3,-999.0,84,-99.99,,,0.06,Acu-Link.com,2013-03-03 13:39:00,
2013-03-03 08:54:00,36.1,31.1,29.44,NNW,337,6.3,-999.0,82,-99.99,,,0.07,Acu-Link.com,2013-03-03 13:54:00,
2013-03-03 09:09:00,36.9,31.3,29.44,NNE,22,4.7,-999.0,80,-99.99,,,0.07,Acu-Link.com,2013-03-03 14:09:00,
2013-03-03 09:24:00,37.6,31.7,29.43,NNW,337,7.3,-999.0,79,-99.99,,,0.08,Acu-Link.com,2013-03-03 14:24:00,
2013-03-03 09:39:00,37.4,31.8,29.43,NNW,337,7.3,-999.0,80,-99.99,,,0.08,Acu-Link.com,2013-03-03 14:39:00,
2013-03-03 09:54:00,38.7,32.4,29.42,NNW,337,8.9,-999.0,78,-99.99,,,0.08,Acu-Link.com,2013-03-03 14:54:00,
2013-03-03 10:09:00,38.7,32.4,29.42,NW,315,6.3,-999.0,78,-99.99,,,0.08,Acu-Link.com,2013-03-03 15:09:00,
2013-03-03 10:25:00,39.9,33.3,29.42,SW,225,2.7,-999.0,77,-99.99,,,0.08,Acu-Link.com,2013-03-03 15:25:00,
2013-03-03 10:40:00,41.2,34.2,29.42,NNE,22,1.7,-999.0,76,-99.99,,,0.08,Acu-Link.com,2013-03-03 15:40:00,
2013-03-03 10:55:00,41.7,33.4,29.42,NW,315,6.3,-999.0,72,-99.99,,,0.08,Acu-Link.com,2013-03-03 15:55:00,
2013-03-03 11:11:00,42.8,33.7,29.41,NNW,337,5.8,-999.0,70,-99.99,,,0.08,Acu-Link.com,2013-03-03 16:11:00,
2013-03-03 11:26:00,42.4,33.3,29.41,North,0,6.3,-999.0,70,-99.99,,,0.08,Acu-Link.com,2013-03-03 16:26:00,
2013-03-03 11:41:00,44.1,33.5,29.41,NW,315,4.7,-999.0,66,-99.99,,,0.08,Acu-Link.com,2013-03-03 16:41:00,
2013-03-03 11:57:00,44.6,32.8,29.40,NE,45,5.3,-999.0,63,-99.99,,,0.08,Acu-Link.com,2013-03-03 16:57:00,
2013-03-03 12:12:00,44.4,33.0,29.39,NNW,337,3.7,-999.0,64,-99.99,,,0.08,Acu-Link.com,2013-03-03 17:12:00,
2013-03-03 12:27:00,43.2,31.9,29.39,NNW,337,4.7,-999.0,64,-99.99,,,0.08,Acu-Link.com,2013-03-03 17:27:00,
2013-03-03 12:42:00,43.7,32.7,29.38,NNW,337,3.7,-999.0,65,-99.99,,,0.08,Acu-Link.com,2013-03-03 17:42:00,
2013-03-03 12:57:00,42.8,32.2,29.38,NW,315,4.2,-999.0,66,-99.99,,,0.08,Acu-Link.com,2013-03-03 17:57:00,
2013-03-03 13:12:00,45.0,32.4,29.38,WNW,292,6.3,-999.0,61,-99.99,,,0.08,Acu-Link.com,2013-03-03 18:12:00,
2013-03-03 13:28:00,45.0,32.8,29.37,North,0,4.7,-999.0,62,-99.99,,,0.08,Acu-Link.com,2013-03-03 18:28:00,
2013-03-03 13:43:00,43.7,30.7,29.37,NNW,337,6.3,-999.0,60,-99.99,,,0.08,Acu-Link.com,2013-03-03 18:43:00,
2013-03-03 13:58:00,42.8,31.9,29.37,NE,45,4.2,-999.0,65,-99.99,,,0.08,Acu-Link.com,2013-03-03 18:58:00,
2013-03-03 14:13:00,42.4,31.9,29.37,WNW,292,3.2,-999.0,66,-99.99,,,0.08,Acu-Link.com,2013-03-03 19:13:00,
2013-03-03 14:29:00,41.9,31.4,29.37,NNW,337,5.8,-999.0,66,-99.99,,,0.08,Acu-Link.com,2013-03-03 19:29:00,
2013-03-03 14:44:00,41.9,32.8,29.37,West,270,3.2,-999.0,70,-99.99,,,0.08,Acu-Link.com,2013-03-03 19:44:00,
2013-03-03 14:59:00,41.5,33.2,29.36,WNW,292,3.7,-999.0,72,-99.99,,,0.08,Acu-Link.com,2013-03-03 19:59:00,
2013-03-03 15:15:00,41.4,30.9,29.37,WNW,292,8.3,-999.0,66,-99.99,,,0.08,Acu-Link.com,2013-03-03 20:15:00,
2013-03-03 15:30:00,41.4,29.8,29.37,NNE,22,5.8,-999.0,63,-99.99,,,0.08,Acu-Link.com,2013-03-03 20:30:00,
2013-03-03 15:45:00,41.4,30.1,29.37,WNW,292,5.3,-999.0,64,-99.99,,,0.08,Acu-Link.com,2013-03-03 20:45:00,
2013-03-03 16:01:00,41.5,29.9,29.36,NW,315,3.7,-999.0,63,-99.99,,,0.08,Acu-Link.com,2013-03-03 21:01:00,
2013-03-03 16:16:00,41.4,31.6,29.36,NW,315,2.7,-999.0,68,-99.99,,,0.08,Acu-Link.com,2013-03-03 21:16:00,
2013-03-03 16:32:00,40.6,29.0,29.36,NNW,337,9.4,-999.0,63,-99.99,,,0.08,Acu-Link.com,2013-03-03 21:32:00,
2013-03-03 16:47:00,40.8,28.4,29.37,NNW,337,5.8,-999.0,61,-99.99,,,0.08,Acu-Link.com,2013-03-03 21:47:00,
2013-03-03 17:02:00,40.6,29.0,29.35,NW,315,5.3,-999.0,63,-99.99,,,0.08,Acu-Link.com,2013-03-03 22:02:00,
2013-03-03 17:18:00,40.5,29.3,29.36,NW,315,5.8,-999.0,64,-99.99,,,0.08,Acu-Link.com,2013-03-03 22:18:00,
2013-03-03 17:33:00,40.3,29.1,29.37,NNW,337,6.3,-999.0,64,-99.99,,,0.08,Acu-Link.com,2013-03-03 22:33:00,
2013-03-03 17:48:00,40.1,28.9,29.36,WNW,292,5.3,-999.0,64,-99.99,,,0.08,Acu-Link.com,2013-03-03 22:48:00,
2013-03-03 18:03:00,39.9,28.3,29.36,North,0,5.8,-999.0,63,-99.99,,,0.08,Acu-Link.com,2013-03-03 23:03:00,
2013-03-03 18:18:00,39.7,28.9,29.36,NNW,337,6.8,-999.0,65,-99.99,,,0.08,Acu-Link.com,2013-03-03 23:18:00,
2013-03-03 18:34:00,39.6,29.2,29.36,NNW,337,5.8,-999.0,66,-99.99,,,0.08,Acu-Link.com,2013-03-03 23:34:00,
2013-03-03 18:50:00,39.2,28.4,29.38,North,0,7.8,-999.0,65,-99.99,,,0.08,Acu-Link.com,2013-03-03 23:50:00,
2013-03-03 19:05:00,38.8,28.4,29.36,North,0,10.9,-999.0,66,-99.99,,,0.08,Acu-Link.com,2013-03-04 00:05:00,
2013-03-03 19:20:00,38.5,28.5,29.36,North,0,8.9,-999.0,67,-99.99,,,0.08,Acu-Link.com,2013-03-04 00:20:00,
2013-03-03 19:35:00,38.1,28.1,29.36,NNW,337,9.9,-999.0,67,-99.99,,,0.08,Acu-Link.com,2013-03-04 00:35:00,
2013-03-03 19:50:00,37.8,27.8,29.37,NNE,22,7.8,-999.0,67,-99.99,,,0.08,Acu-Link.com,2013-03-04 00:50:00,
2013-03-03 20:05:00,37.4,27.8,29.37,NNE,22,11.4,-999.0,68,-99.99,,,0.08,Acu-Link.com,2013-03-04 01:05:00,
2013-03-03 20:20:00,37.0,27.8,29.36,East,90,6.3,-999.0,69,-99.99,,,0.08,Acu-Link.com,2013-03-04 01:20:00,
2013-03-03 20:35:00,36.7,27.2,29.37,NNW,337,7.3,-999.0,68,-99.99,,,0.08,Acu-Link.com,2013-03-04 01:35:00,
2013-03-03 20:51:00,36.3,27.1,29.36,West,270,8.3,-999.0,69,-99.99,,,0.08,Acu-Link.com,2013-03-04 01:51:00,
2013-03-03 21:06:00,36.3,27.5,29.37,North,0,11.9,-999.0,70,-99.99,,,0.08,Acu-Link.com,2013-03-04 02:06:00,
2013-03-03 21:21:00,36.0,26.8,29.36,North,0,9.4,-999.0,69,-99.99,,,0.08,Acu-Link.com,2013-03-04 02:21:00,
2013-03-03 21:36:00,35.8,26.6,29.36,NNW,337,8.9,-999.0,69,-99.99,,,0.08,Acu-Link.com,2013-03-04 02:36:00,
2013-03-03 21:51:00,35.4,26.6,29.36,North,0,9.9,-999.0,70,-99.99,,,0.08,Acu-Link.com,2013-03-04 02:51:00,
2013-03-03 22:07:00,35.4,26.6,29.36,NNW,337,9.9,-999.0,70,-99.99,,,0.08,Acu-Link.com,2013-03-04 03:07:00,
2013-03-03 22:22:00,35.2,26.4,29.37,NNW,337,7.3,-999.0,70,-99.99,,,0.08,Acu-Link.com,2013-03-04 03:22:00,
2013-03-03 22:37:00,35.2,26.4,29.36,North,0,10.9,-999.0,70,-99.99,,,0.08,Acu-Link.com,2013-03-04 03:37:00,
2013-03-03 22:52:00,35.1,26.3,29.35,North,0,13.0,-999.0,70,-99.99,,,0.08,Acu-Link.com,2013-03-04 03:52:00,
2013-03-03 23:07:00,35.1,26.3,29.35,NNW,337,10.9,-999.0,70,-99.99,,,0.08,Acu-Link.com,2013-03-04 04:07:00,
2013-03-03 23:22:00,35.1,26.3,29.36,NNW,337,9.4,-999.0,70,-99.99,,,0.08,Acu-Link.com,2013-03-04 04:22:00,
2013-03-03 23:38:00,35.1,26.3,29.35,NNE,22,8.3,-999.0,70,-99.99,,,0.08,Acu-Link.com,2013-03-04 04:38:00,
2013-03-03 23:53:00,35.1,26.3,29.36,West,270,7.8,-999.0,70,-99.99,,,0.08,Acu-Link.com,2013-03-04 04:53:00,